Orbital Elements at Epoch 2459200.5 (2020-Dec-17.0) TDB
Reference: JPL 15 (heliocentric ecliptic J2000)
Element | Value | Uncertainty (1-sigma) | Units |
e | .5260086652674183 | 1.3486e-07 | |
a | 1.253826811439222 | 1.1486e-08 | au |
q | .5943030438775739 | 1.6696e-07 | au |
i | 4.859241023479222 | 5.2518e-06 | deg |
node | 18.96697929965733 | 1.0833e-05 | deg |
peri | 95.72536686835251 | 1.4645e-05 | deg |
M | 309.9108542257435 | 3.1369e-05 | deg |
tp | 2459271.850312565966 (2021-Feb-26.35031257) | 4.5258e-05 | TDB |
period | 512.8079572271184 1.40 | 7.0467e-06 1.929e-08 | d yr |
n | .7020171877726128 | 9.6467e-09 | deg/d |
Q | 1.91335057900087 | 1.7528e-08 | au |
|
| | Orbit Determination Parameters
Additional Information
|